This demonstration page uses our WeatherBlox Daily Observations layout. Learn more.

39.01783, -85.05884

Hourly Observations for July 4, 2019

Temp ( °F °C ) Dew Point ( °F °C ) Humidity (%) Winds ( mph kmh ) Pressure ( in mb ) Visibility ( mi km ) Precip ( " mm )
12:52 am 00:52 Mostly Cloudy 72 22.2 69 20.6 91 91 S 3 6 29.94 1014 7 11.265408 0 0
2:01 am 02:01 Cloudy 72 22.2 70 21.1 94 94 SW 6 9 29.97 1015 7 11.265408 0 0
2:28 am 02:28 Cloudy 72 22.2 70 21.1 94 94 SSW 3 6 29.94 1014 7 11.265408 0 0
2:52 am 02:52 Cloudy 72 22.2 70 21.1 94 94 Calm 29.94 1014 7 11.265408 0 0
4:28 am 04:28 Cloudy with Mist and Fog 71 21.7 69 20.6 94 94 SSW 7 11 29.97 1015 5 8.04672 0 0
4:52 am 04:52 Cloudy with Mist and Fog 71 21.7 69 20.6 94 94 SSW 6 9 29.94 1014 3 4.828032 0 0
5:23 am 05:23 Cloudy with Mist and Fog 71 21.7 69 20.6 94 94 S 6 9 29.94 1014 2.5 4.02336 0 0
5:41 am 05:41 Mostly Cloudy with Mist and Fog 71 21.7 69 20.6 94 94 SSE 5 7 29.97 1015 2.5 4.02336 0 0
5:52 am 05:52 Mostly Cloudy with Patchy Fog 71 21.7 69 20.6 94 94 SSW 5 7 29.94 1014 2 3.218688 0 0
6:02 am 06:02 Cloudy with Patchy Fog 71 21.7 69 20.6 94 94 S 6 9 29.97 1015 0.5 0.804672 0 0
6:52 am 06:52 Mostly Cloudy with Fog 70 21.1 69 20.6 97 97 SW 6 9 29.97 1015 0.25 0.402336 0 0
7:52 am 07:52 Cloudy with Mist and Fog 71 21.7 69 20.6 94 94 Calm 29.97 1015 0.5 0.804672 0 0
8:52 am 08:52 Mostly Cloudy with Haze 74 23.3 69 20.6 85 85 Calm 30 1016 2 3.218688 0 0
9:44 am 09:44 Mostly Cloudy with Haze 76 24.4 69 20.6 79 79 Calm 30.03 1017 6 9.656064 0 0
9:52 am 09:52 Mostly Cloudy with Haze 76 24.4 69 20.6 79 79 Calm 30 1016 6 9.656064 0 0
10:43 am 10:43 Partly Cloudy 80 26.7 70 21.1 71 71 S 5 7 30.03 1017 9 14.484096 0 0
10:52 am 10:52 Partly Cloudy 80 26.7 70 21.1 71 71 Calm 30 1016 9 14.484096 0 0
11:52 am 11:52 Partly Cloudy 82 27.8 69 20.6 65 65 Calm 30 1016 10 16.09344 0 0
12:52 pm 12:52 Partly Cloudy 85 29.4 70 21.1 61 61 Calm 30 1016 10 16.09344 0 0
1:52 pm 13:52 Partly Cloudy 85 29.4 69 20.6 59 59 SW 3 6 30 1016 10 16.09344 0 0
2:52 pm 14:52 Partly Cloudy 87 30.6 69 20.6 55 55 undefined N/A 29.97 1015 10 16.09344 0 0
3:52 pm 15:52 Partly Cloudy 89 31.7 69 20.6 52 52 W 8 13 29.94 1014 10 16.09344 0 0
3:56 pm 15:56 Partly Cloudy with Nearby Thunderstorms 89 31.7 69 20.6 52 52 VRB 7 11 29.94 1014 10 16.09344 0 0
4:08 pm 16:08 Partly Cloudy 87 30.6 69 20.6 55 55 Calm 29.94 1014 10 16.09344 0 0
4:52 pm 16:52 Mostly Cloudy 89 31.7 69 20.6 52 52 WSW 6 9 29.94 1014 10 16.09344 0 0
5:05 pm 17:05 Mostly Cloudy with Nearby Thunderstorms 86 30 70 21.1 59 59 S 5 7 29.94 1014 10 16.09344 0 0
5:11 pm 17:11 Mostly Cloudy with Thunderstorms 87 30.6 70 21.1 57 57 SSE 9 15 29.94 1014 10 16.09344 0 0
5:52 pm 17:52 Mostly Cloudy with Light Thunderstorms 81 27.2 66 18.9 61 61 ESE 12 19 29.94 1014 10 16.09344 0.001 0.001
5:58 pm 17:58 Mostly Cloudy 83 28.3 66 18.9 57 57 E 6 9 29.91 1013 10 16.09344 0.001 0.001
7:52 pm 19:52 Partly Cloudy 83 28.3 70 21.1 65 65 E 3 6 29.94 1014 10 16.09344 0 0
8:52 pm 20:52 Partly Cloudy 82 27.8 70 21.1 67 67 SW 3 6 29.97 1015 10 16.09344 0 0
9:52 pm 21:52 Mostly Clear 79 26.1 70 21.1 74 74 Calm 29.97 1015 10 16.09344 0 0
10:52 pm 22:52 Hazy 77 25 70 21.1 79 79 SW 3 6 30 1016 6 9.656064 0 0
11:52 pm 23:52 Hazy 76 24.4 70 21.1 82 82 S 6 9 30 1016 5 8.04672 0 0

Powered by AerisWeather